Location: Chuathbaluk
(61.5726°N, 159.2454°W)
Time: 12:13:13
(UTC+00:00)

PCSat - Visible Passes

Search period start: 23 January 2021 00:00
Search period end: 02 February 2021 00:00
Orbit: 784 x 795 km, 67.1° (Epoch: 23 January)

Date Brightness Start Highest point End Pass type
(mag) Time Alt. Az. Time Alt. Az. Time Alt. Az.
23 Jan 10.0 02:59:47 10° W 03:05:08 53° NNW 03:10:30 10° ENE visible
23 Jan 10.0 04:44:01 10° WNW 04:49:20 50° N 04:51:49 29° ENE visible
23 Jan 9.7 06:27:45 10° NW 06:32:31 68° NW 06:32:31 68° NW visible
23 Jan 11.8 08:11:22 10° WNW 08:13:14 20° WNW 08:13:14 20° WNW visible
24 Jan 10.0 04:12:52 10° WNW 04:18:10 49° N 04:21:46 20° ENE visible
24 Jan 9.4 05:56:41 10° NW 06:02:10 76° NNE 06:02:29 73° ENE visible
24 Jan 11.3 07:40:16 10° WNW 07:43:11 29° WNW 07:43:11 29° WNW visible
25 Jan 10.0 03:41:43 10° WNW 03:47:00 48° N 03:51:45 13° ENE visible
25 Jan 9.6 05:25:38 10° WNW 05:31:04 68° NNE 05:32:28 49° E visible
25 Jan 10.6 07:09:11 10° NW 07:13:11 42° W 07:13:11 42° W visible
25 Jan 12.4 08:53:38 10° WNW 08:53:54 11° WNW 08:53:54 11° WNW visible
26 Jan 10.0 03:10:33 10° WNW 03:15:50 48° N 03:21:07 10° ENE visible
26 Jan 9.7 04:54:33 10° WNW 04:59:58 62° NNE 05:02:30 31° E visible
26 Jan 9.9 06:38:07 10° NW 06:43:13 60° WSW 06:43:13 60° WSW visible
26 Jan 12.0 08:22:13 10° WNW 08:23:55 16° W 08:23:55 16° W visible
27 Jan 9.8 04:23:27 10° WNW 04:28:51 57° NNE 04:32:34 20° E visible
27 Jan 9.6 06:07:04 10° NW 06:12:31 72° SW 06:13:17 62° S visible
27 Jan 11.6 07:50:56 10° WNW 07:54:01 22° W 07:54:01 22° W visible
28 Jan 9.9 03:52:22 10° WNW 03:57:43 53° NNE 04:02:42 12° E visible
28 Jan 9.5 05:36:01 10° NW 05:41:30 83° SW 05:43:26 42° SE visible
28 Jan 11.1 07:19:44 10° WNW 07:24:09 29° WSW 07:24:09 29° WSW visible
29 Jan 9.9 03:21:14 10° WNW 03:26:33 50° N 03:31:51 10° E visible
29 Jan 9.5 05:04:57 10° NW 05:10:27 86° NE 05:13:38 26° ESE visible
29 Jan 10.8 06:48:35 10° WNW 06:53:29 35° WSW 06:54:22 33° SW visible
30 Jan 9.5 04:33:54 10° NW 04:39:23 77° NNE 04:43:56 15° ESE visible
30 Jan 10.6 06:17:28 10° WNW 06:22:36 42° SW 06:24:41 29° S visible
30 Jan 12.2 08:02:39 10° W 08:04:42 12° WSW 08:05:26 12° WSW visible
31 Jan 9.6 04:02:50 10° WNW 04:08:18 69° NNE 04:13:43 10° ESE visible
31 Jan 10.3 05:46:24 10° NW 05:51:39 51° SW 05:55:06 21° SSE visible
31 Jan 12.0 07:30:54 10° WNW 07:33:57 15° WSW 07:35:52 13° SW visible
01 Feb 9.7 03:31:45 10° WNW 03:37:11 62° NNE 03:42:35 10° ESE visible
01 Feb 10.0 05:15:20 10° NW 05:20:42 60° SW 05:25:41 12° SSE visible
01 Feb 11.9 06:59:27 10° WNW 07:03:11 19° WSW 07:06:27 12° SSW visible
